Change the Weather History Date:

Sunday, May 26, 2013

  Actual Average Record
Temperature  
Mean Temperature 63 °F -  
Max Temperature 71 °F 74 °F 92 °F (1978)
Min Temperature 55 °F 55 °F 43 °F (1961)
Degree Days  
Heating Degree Days 2    
Growing Degree Days 13 (Base 50)    
Moisture  
Dew Point 52 °F    
Average Humidity 70    
Maximum Humidity 77    
Minimum Humidity 64    
Precipitation  
Precipitation 0.00 in - - ()
Sea Level Pressure  
Sea Level Pressure 30.11 in    
Wind  
Wind Speed 12 mph (ESE)    
Max Wind Speed 17 mph    
Max Gust Speed 25 mph    
Visibility 10 miles    
Events      
Averages and records for this station are not official NWS values.
T = Trace of Precipitation, MM = Missing Value Source: NWS Daily Summary

Daily Weather History Graph

Daily Weather History Graph

Search for Another Location

Airport or City:

Trip Planner

Search our weather history database for the weather conditions in past years. The results will help you decide how hot, cold, wet, or windy it might be!

Date:

Astronomy

May. 26, 2013 Rise Set
Actual Time 5:40 AM CDT 8:25 PM CDT
Civil Twilight 5:08 AM CDT 8:57 PM CDT
Nautical Twilight 4:28 AM CDT 9:37 PM CDT
Astronomical Twilight 3:42 AM CDT 10:23 PM CDT
Moon 10:13 PM CDT (5/26) 7:10 AM CDT (5/26)
Length of Visible Light 15h 49m
Length of Day
14h 44m
Waning Gibbous, 96% of the Moon is Illuminated
May 26
Waning Gibbous
May 31
Last Quarter
Jun 8
New
Jun 16
First Quarter
Jun 23
Full

Hourly Weather History & Observations

Time (CDT) Temp. Dew Point Humidity Pressure Visibility Wind Dir Wind Speed Gust Speed Precip Events Conditions
12:15 AM 55.4 °F 46.4 °F 72% 30.20 in 10.0 mi East 15.0 mph 21.9 mph N/A   Overcast
12:35 AM 55.4 °F 46.4 °F 72% 30.20 in 10.0 mi East 13.8 mph - N/A   Overcast
12:55 AM 55.4 °F 46.4 °F 72% 30.20 in 10.0 mi East 13.8 mph 20.7 mph N/A   Overcast
1:15 AM 55.4 °F 46.4 °F 72% 30.18 in 10.0 mi ESE 13.8 mph 20.7 mph N/A   Overcast
1:35 AM 55.4 °F 46.4 °F 72% 30.17 in 10.0 mi ESE 15.0 mph 23.0 mph N/A   Overcast
1:55 AM 55.4 °F 46.4 °F 72% 30.18 in 10.0 mi East 13.8 mph 23.0 mph N/A   Overcast
2:15 AM 55.4 °F 46.4 °F 72% 30.17 in 10.0 mi ESE 15.0 mph 23.0 mph N/A   Overcast
2:35 AM 55.4 °F 46.4 °F 72% 30.17 in 10.0 mi ESE 13.8 mph 19.6 mph N/A   Overcast
2:55 AM 55.4 °F 44.6 °F 67% 30.17 in 10.0 mi ESE 15.0 mph - N/A   Scattered Clouds
3:15 AM 55.4 °F 44.6 °F 67% 30.17 in 10.0 mi ESE 15.0 mph 19.6 mph N/A   Mostly Cloudy
3:35 AM 55.4 °F 44.6 °F 67% 30.17 in 10.0 mi East 12.7 mph 19.6 mph N/A   Mostly Cloudy
3:55 AM 55.4 °F 44.6 °F 67% 30.16 in 10.0 mi ESE 16.1 mph 20.7 mph N/A   Mostly Cloudy
4:15 AM 55.4 °F 46.4 °F 72% 30.16 in 10.0 mi ESE 13.8 mph - N/A   Mostly Cloudy
4:35 AM 55.4 °F 46.4 °F 72% 30.16 in 10.0 mi ESE 11.5 mph 16.1 mph N/A   Mostly Cloudy
4:55 AM 55.4 °F 46.4 °F 72% 30.15 in 10.0 mi ESE 12.7 mph 19.6 mph N/A   Scattered Clouds
5:15 AM 55.4 °F 46.4 °F 72% 30.16 in 10.0 mi ESE 8.1 mph - N/A   Scattered Clouds
5:35 AM 55.4 °F 46.4 °F 72% 30.15 in 10.0 mi ESE 10.4 mph - N/A   Clear
5:55 AM 55.4 °F 46.4 °F 72% 30.14 in 10.0 mi ESE 12.7 mph - N/A   Scattered Clouds
6:15 AM 55.4 °F 46.4 °F 72% 30.16 in 10.0 mi East 10.4 mph - N/A   Scattered Clouds
6:35 AM 55.4 °F 46.4 °F 72% 30.16 in 10.0 mi East 9.2 mph - N/A   Mostly Cloudy
6:55 AM 55.4 °F 46.4 °F 72% 30.16 in 10.0 mi East 11.5 mph - N/A   Mostly Cloudy
7:15 AM 55.4 °F 46.4 °F 72% 30.16 in 10.0 mi East 10.4 mph - N/A   Mostly Cloudy
7:35 AM 55.4 °F 46.4 °F 72% 30.16 in 10.0 mi ESE 10.4 mph - N/A   Mostly Cloudy
7:55 AM 55.4 °F 46.4 °F 72% 30.17 in 10.0 mi East 8.1 mph - N/A   Mostly Cloudy
8:15 AM 55.4 °F 46.4 °F 72% 30.19 in 10.0 mi NE 6.9 mph - N/A   Overcast
8:35 AM 55.4 °F 48.2 °F 77% 30.18 in 10.0 mi East 11.5 mph - N/A   Overcast
8:55 AM 57.2 °F 48.2 °F 72% 30.18 in 10.0 mi East 11.5 mph 17.3 mph N/A   Mostly Cloudy
9:15 AM 57.2 °F 48.2 °F 72% 30.17 in 10.0 mi East 12.7 mph - N/A   Scattered Clouds
9:35 AM 57.2 °F 48.2 °F 72% 30.17 in 10.0 mi East 16.1 mph 21.9 mph N/A   Mostly Cloudy
9:55 AM 57.2 °F 48.2 °F 72% 30.17 in 10.0 mi East 17.3 mph 25.3 mph N/A   Overcast
10:15 AM 59.0 °F 48.2 °F 67% 30.16 in 10.0 mi ESE 16.1 mph 21.9 mph N/A   Overcast
10:35 AM 60.8 °F 50.0 °F 68% 30.16 in 10.0 mi ESE 17.3 mph - N/A   Mostly Cloudy
10:55 AM 60.8 °F 51.8 °F 72% 30.16 in 10.0 mi ESE 13.8 mph 23.0 mph N/A   Mostly Cloudy
11:15 AM 60.8 °F 51.8 °F 72% 30.17 in 10.0 mi ESE 13.8 mph 18.4 mph N/A   Overcast
11:35 AM 60.8 °F 51.8 °F 72% 30.16 in 10.0 mi ESE 12.7 mph - N/A   Overcast
11:55 AM 62.6 °F 51.8 °F 68% 30.14 in 10.0 mi ESE 16.1 mph 19.6 mph N/A   Mostly Cloudy
12:15 PM 62.6 °F 51.8 °F 68% 30.14 in 10.0 mi SE 11.5 mph - N/A   Scattered Clouds
12:35 PM 62.6 °F 51.8 °F 68% 30.13 in 10.0 mi ESE 13.8 mph - N/A   Scattered Clouds
12:55 PM 64.4 °F 53.6 °F 68% 30.12 in 10.0 mi ESE 12.7 mph - N/A   Scattered Clouds
1:15 PM 62.6 °F 53.6 °F 72% 30.12 in 10.0 mi ESE 11.5 mph - N/A   Mostly Cloudy
1:35 PM 62.6 °F 53.6 °F 72% 30.11 in 10.0 mi SE 11.5 mph - N/A   Mostly Cloudy
1:55 PM 64.4 °F 53.6 °F 68% 30.12 in 10.0 mi SE 8.1 mph - N/A   Overcast
2:15 PM 64.4 °F 55.4 °F 73% 30.10 in 10.0 mi ESE 12.7 mph - N/A   Mostly Cloudy
2:35 PM 66.2 °F 55.4 °F 68% 30.09 in 10.0 mi SE 10.4 mph - N/A   Scattered Clouds
2:55 PM 66.2 °F 55.4 °F 68% 30.09 in 10.0 mi SE 9.2 mph - N/A   Mostly Cloudy
3:15 PM 68.0 °F 55.4 °F 64% 30.09 in 10.0 mi ESE 11.5 mph - N/A   Overcast
3:35 PM 69.8 °F 57.2 °F 64% 30.08 in 10.0 mi SE 8.1 mph - N/A   Mostly Cloudy
3:55 PM 71.6 °F 59.0 °F 64% 30.06 in 10.0 mi ESE 11.5 mph - N/A   Scattered Clouds
4:15 PM 69.8 °F 57.2 °F 64% 30.06 in 10.0 mi SE 9.2 mph - N/A   Mostly Cloudy
4:35 PM 69.8 °F 57.2 °F 64% 30.05 in 10.0 mi SE 8.1 mph - N/A   Mostly Cloudy
4:55 PM 69.8 °F 57.2 °F 64% 30.04 in 10.0 mi SE 6.9 mph - N/A   Overcast
5:15 PM 71.6 °F 60.8 °F 69% 30.03 in 10.0 mi ESE 9.2 mph - N/A   Overcast
5:35 PM 71.6 °F 60.8 °F 69% 30.03 in 10.0 mi East 6.9 mph - N/A   Overcast
5:55 PM 71.6 °F 60.8 °F 69% 30.03 in 10.0 mi East 8.1 mph - N/A   Overcast
6:15 PM 71.6 °F 60.8 °F 69% 30.02 in 10.0 mi East 10.4 mph - N/A   Mostly Cloudy
6:35 PM 71.6 °F 60.8 °F 69% 30.02 in 10.0 mi East 8.1 mph - N/A   Mostly Cloudy
6:55 PM 71.6 °F 60.8 °F 69% 30.01 in 10.0 mi East 8.1 mph - N/A   Scattered Clouds
7:15 PM 69.8 °F 60.8 °F 73% 30.02 in 10.0 mi East 5.8 mph - N/A   Scattered Clouds
7:35 PM 69.8 °F 60.8 °F 73% 30.00 in 10.0 mi East 6.9 mph - N/A   Clear
7:55 PM 69.8 °F 59.0 °F 68% 30.00 in 10.0 mi ESE 8.1 mph - N/A   Clear
8:15 PM 69.8 °F 59.0 °F 68% 30.01 in 10.0 mi ESE 10.4 mph - N/A   Scattered Clouds
8:35 PM 68.0 °F 59.0 °F 73% 30.00 in 10.0 mi ESE 9.2 mph - N/A   Scattered Clouds
8:55 PM 66.2 °F 57.2 °F 73% 30.01 in 10.0 mi East 6.9 mph - N/A   Clear
9:15 PM 68.0 °F 57.2 °F 68% 30.03 in 10.0 mi NNE 10.4 mph - N/A   Mostly Cloudy
9:35 PM 66.2 °F 57.2 °F 73% 30.01 in 10.0 mi East 10.4 mph - N/A   Mostly Cloudy
9:55 PM 66.2 °F 57.2 °F 73% 30.02 in 10.0 mi ENE 8.1 mph - N/A   Scattered Clouds
10:15 PM 66.2 °F 57.2 °F 73% 30.01 in 10.0 mi ENE 12.7 mph - N/A   Mostly Cloudy
10:35 PM 64.4 °F 55.4 °F 73% 30.01 in 10.0 mi East 9.2 mph - N/A   Mostly Cloudy
10:55 PM 64.4 °F 55.4 °F 73% 30.01 in 10.0 mi East 11.5 mph - N/A   Overcast
11:15 PM 64.4 °F 55.4 °F 73% 29.99 in 10.0 mi East 9.2 mph - N/A   Mostly Cloudy
11:35 PM 64.4 °F 55.4 °F 73% 30.01 in 10.0 mi East 4.6 mph - N/A   Mostly Cloudy
11:55 PM 64.4 °F 55.4 °F 73% 29.98 in 10.0 mi SE 8.1 mph - N/A   Mostly Cloudy